NOAA 11 - Orbit

View from above orbital plane
View from above orbital plane
View from above satellite
View from above satellite

Ground track
Ground track

The orbit data is extracted from the following two-line orbital elements,

1 19531U 88089A   13145.47184036 -.00000012  00000-0  16075-4 0  3697
2 19531 098.7108 229.0398 0010385 330.5981 096.8744 14.15016527272914
Epoch (UTC): 25 May 2013 11:19:27
Eccentricity: 0.0010385
inclination: 98.7108°
perigee height: 835 km
apogee height: 850 km
right ascension of ascending node: 229.0398°
argument of perigee: 330.5981°
revolutions per day: 14.15016527
mean anomaly at epoch: 96.8744°
orbit number at epoch: 27291

The dashed part of the orbit path shows where the satellite is in the earth's shadow,  

Developed and maintained by Chris Peat, Heavens-Above GmbH. Please read the updated FAQ before sending e-mail. Imprint. DLR